Flag for Norway Weather past 2 weeks in Kristiansund, Norway

Now
43 °F

Clear.


Feels Like: 40 °F
Forecast: 42 / 50 °F
Wind: 5 mph from Northeast

Location: Kristiansund / Kvernberget


UV Index: 0 (Low)

Visibility: 10 mi


Pressure: 30.15 "Hg

Humidity: 57%

Dew point: 28 °F

Location of KristiansundLocation

Historic Weather in Kristiansund

°F

Kristiansund temperature yesterday

Maximum temperature yesterday: 55 °F (at 12:50 PM)
Minimum temperature yesterday: 41 °F (at 4:20 AM)
Average temperature yesterday: 47 °F

Past Weeks' High & Low Weather Summary

 TemperatureHumidityPressure
High59 °F (Apr 8, 12:20 PM)100% (Apr 7, 6:50 AM)30.27 "Hg (Apr 7, 6:50 AM)
Low34 °F (Apr 14, 11:50 PM)39% (Apr 16, 1:20 PM)28.97 "Hg (Apr 13, 2:20 AM)
Average44 °F74%29.75 "Hg
* Reported Apr 5 10:20 PM — Apr 20 10:50 PM, Kristiansund, Weather by CustomWeather, © 2014

Note: Actual official high and low records may vary slightly from our data, if they occured in-between our weather recording intervals... More about our weather records

Advertising

Historic Weather Conditions — Data for Previous 24 hours

 ConditionsComfort  
Time TempWeatherWind HumidityBarometerVisibility
10:50 PM
Apr 20
43 °FClear.2 mph61%30.15 "Hg10 mi
10:20 PM43 °FClear.2 mph71%30.15 "Hg10 mi
9:50 PM43 °FSunny.1 mph61%30.15 "Hg10 mi
9:20 PM45 °FSunny.1 mph57%30.15 "Hg10 mi
8:50 PM45 °FSunny.2 mph57%30.15 "Hg10 mi
8:20 PM48 °FSunny.6 mph54%30.15 "Hg10 mi
7:50 PM48 °FSunny.6 mph54%30.15 "Hg10 mi
7:20 PM50 °FPassing clouds.5 mph47%30.12 "HgN/A
6:50 PM50 °FSunny.7 mph54%30.12 "Hg10 mi
6:20 PM50 °FSunny.9 mph58%30.12 "Hg10 mi
5:50 PM50 °FSunny.8 mph58%30.12 "Hg10 mi
5:20 PM50 °FSunny.8 mph58%30.15 "Hg10 mi
4:50 PM50 °FSunny.9 mph58%30.15 "Hg10 mi
4:20 PM50 °FPassing clouds.10 mph62%30.15 "HgN/A
3:50 PM52 °FSunny.9 mph62%30.15 "Hg10 mi
3:20 PM52 °FSunny.10 mph62%30.15 "Hg10 mi
2:50 PM54 °FPassing clouds.7 mph54%30.12 "HgN/A
2:20 PM54 °FPassing clouds.8 mph51%30.15 "HgN/A
1:50 PM55 °FPassing clouds.6 mph47%30.15 "HgN/A
1:20 PM54 °FPassing clouds.6 mph51%30.15 "HgN/A
12:50 PM55 °FSunny.7 mph47%30.15 "Hg10 mi
12:20 PM54 °FSunny.5 mph54%30.15 "Hg10 mi
11:50 AM54 °FCool.3 mph54%30.18 "HgN/A
11:20 AM54 °FCool.2 mph54%30.18 "HgN/A
10:50 AM54 °FCool.2 mph54%30.18 "HgN/A
10:20 AM52 °FCool.5 mph58%30.18 "HgN/A
9:50 AM50 °FSunny.5 mph62%30.18 "Hg10 mi
9:20 AM46 °FSunny.5 mph71%30.18 "Hg10 mi
8:50 AM46 °FSunny.6 mph71%30.21 "Hg10 mi
8:20 AM46 °FSunny.5 mph71%30.21 "Hg10 mi
7:50 AM43 °FPartly sunny.6 mph81%30.21 "HgN/A
7:20 AM43 °FPassing clouds.6 mph76%30.21 "HgN/A
6:50 AM41 °FBroken clouds.6 mph81%30.21 "HgN/A
6:20 AM41 °FPassing clouds.3 mph87%30.24 "HgN/A
5:50 AM41 °FOvercast.6 mph93%30.24 "HgN/A
5:20 AM41 °FOvercast.5 mph87%30.24 "HgN/A
4:50 AM41 °FMostly cloudy.6 mph87%30.24 "HgN/A
4:20 AM41 °FPassing clouds.5 mph87%30.24 "HgN/A
3:50 AM43 °FPassing clouds.3 mph81%30.24 "HgN/A
3:20 AM43 °FPartly cloudy.3 mph81%30.24 "HgN/A
2:50 AM43 °FMostly cloudy.3 mph76%30.27 "HgN/A
2:20 AM43 °FOvercast.1 mph76%30.27 "HgN/A
1:20 AM45 °FOvercast.1 mph76%30.27 "HgN/A
12:50 AM45 °FOvercast.2 mph76%30.27 "HgN/A
12:20 AM45 °FOvercast.7 mph71%30.27 "HgN/A
Weather by CustomWeather, © 2014

See weather overview